Regional Weather Roundup
Issued by NWS

Home | Current Version | Previous Version | Text Only | Print | Product List | Glossary On
Versions: 1 2 3 4 5 6 7 8 9 10 11 12 13 14 15 16 17 18 19 20 21 22 23 24 25 26 27 28 29 30 31 32 33 34 35 36 37 38 39 40 41 42 43 44 45 46 47 48 49 50
000
ASUS44 KLIX 311712
RWRLA
LOUISIANA WEATHER ROUNDUP
NATIONAL WEATHER SERVICE NEW ORLEANS LA
1200 PM CDT FRI JUL 31 2015

NOTE: "FAIR" INDICATES FEW OR NO CLOUDS BELOW 12,000 FEET WITH NO
      SIGNIFICANT WEATHER AND/OR OBSTRUCTIONS TO VISIBILITY.
      SKY/WX - SKY CONDITION AND SIGNIFICANT WEATHER.
      TMP - AIR TEMPERATURE.    DP   - DEWPOINT TEMPERATURE.
      RH  - RELATIVE HUMIDITY.  PRES - PRESSURE.
      HX  - HEAT INDEX.         WCI  - WIND CHILL INDEX.

*  THESE STATIONS ARE NOT NWS OR FAA STATIONS AND ARE NOT UNDER
   NWS QUALITY CONTROL.

LAZ040-048-061>063-065-066-069-311800-
SOUTHEAST LOUISIANA

CITY           SKY/WX    TMP DP  RH WIND       PRES   REMARKS
N.O. AUDUBON     N/A     93  77  60 MISG        N/A  HX 107
N.O. INTL ARPT MOSUNNY   88  72  58 N7        29.96S
N.O. LAKEFRONT MOSUNNY   87  72  60 N8        29.96S
N.O. DOWNTOWN* FAIR      88  73  62 NW5       29.96S HX  96
RESERVE*       FAIR      90  72  56 NE7       29.96F HX  97
SLIDELL        SUNNY     90  77  65 VRB7      29.95S HX 103
BATON ROUGE    SUNNY     89  70  53 VRB6      29.98F
BOOTHVILLE     SUNNY     88  76  67 VRB6      29.95S HX  99
BELLE CHASSE   MOSUNNY   90  74  59 NE5       29.95S HX  99
BOGALUSA*        N/A     87  71  58 N6        29.98F
GALLIANO*      NOT AVBL
NEW ROADS*     FAIR     N/A N/A N/A N5        30.00S
GONZALES*      FAIR      88  71  57 N6        29.96F
HAMMOND*       SUNNY     90  68  48 N3        29.98F
HOUMA*         SUNNY     91  75  59 N5        29.95S HX 102
PORT FOURCHON*   N/A     88  75  66 VRB5      29.96R HX  97

$$

LAZ041-044-053-054-311800-
SOUTHWEST LOUISIANA

CITY           SKY/WX    TMP DP  RH WIND       PRES   REMARKS
LAKE CHARLES   MOSUNNY   91  72  53 N8        29.99F HX  98
LAFAYETTE      SUNNY     90  73  57 NE9       29.99S HX  98
PATTERSON      SUNNY     88  73  62 NE3       29.98S HX  96
SALT POINT       N/A     89  75  63 MISG      29.95S HX  99
NEW IBERIA     SUNNY     91  74  57 N9        29.98F HX 100
CHENAULT AIRPK SUNNY     90  73  58 NE7       30.00S HX  98

$$

LAZ027-028-311800-
CENTRAL LOUISIANA

CITY           SKY/WX    TMP DP  RH WIND       PRES   REMARKS
FORT POLK      SUNNY     87  68  53 N8        30.02F
ALEXANDRIA INT SUNNY     87  68  52 N9        30.02S
ALEXANDRIA     SUNNY     89  67  47 NE8       30.03F

$$

LAZ001-002-311800-
NORTHWEST LOUISIANA

CITY           SKY/WX    TMP DP  RH WIND       PRES   REMARKS
SHREVEPORT     MOSUNNY   90  62  39 E12       30.08F
BARKSDALE AFB  MOSUNNY   88  62  40 NE12      30.08F
DTN SHREVEPORT SUNNY     86  63  45 NE10      30.08F

$$

LAZ014-016-311800-
NORTHEAST LOUISIANA

CITY           SKY/WX    TMP DP  RH WIND       PRES   REMARKS
MONROE         SUNNY     88  61  40 E15G21    30.08S
TALLULAH       SUNNY     89  61  38 NE13G23   30.04F

$$




USA.gov is the U.S. government's official web portal to all federal, state and local government web resources and services.